Date,TemperatureHighF,TemperatureAvgF,TemperatureLowF,DewpointHighF,DewpointAvgF,DewpointLowF,HumidityHigh,HumidityAvg,HumidityLow,PressureMaxIn,PressureMinIn,WindSpeedMaxMPH,WindSpeedAvgMPH,GustSpeedMaxMPH,PrecipitationSumIn
2013-6-1,79.8,76.9,75.8,74.3,73.1,71.8,93,88,79,30.13,29.65,23,10,23,0.00
2013-6-2,79.8,77.6,73.9,77.4,74.8,72.5,98,91,86,30.09,29.71,32,14,32,0.24
2013-6-3,82.8,79.1,77.4,79.6,77.8,75.9,100,96,88,29.95,29.84,23,13,23,0.04
2013-6-4,84.5,79.0,75.4,78.7,76.0,73.7,97,91,75,30.01,29.67,17,6,17,0.03
2013-6-5,80.1,78.5,75.8,78.5,76.6,73.4,99,94,85,30.01,29.91,23,8,23,0.11
2013-6-6,79.0,76.7,74.2,77.4,74.5,72.1,100,93,84,29.94,29.64,36,11,36,1.21
2013-6-7,85.9,78.5,74.0,77.8,74.9,71.6,100,89,65,29.86,29.44,44,18,44,0.02
2013-6-8,82.6,79.3,76.8,78.4,76.4,73.8,98,91,83,30.08,29.53,28,13,28,0.00
2013-6-9,81.4,79.3,78.3,78.7,77.1,73.8,99,93,79,30.12,30.05,23,12,23,0.00
2013-6-10,82.4,80.0,71.8,79.9,77.8,70.9,100,93,87,30.10,29.94,28,16,28,0.01
2013-6-11,85.5,80.7,75.4,80.8,76.6,72.3,98,88,71,30.03,29.52,26,11,26,0.00
2013-6-12,92.3,83.6,78.5,82.3,78.4,73.6,98,85,56,29.98,29.41,18,7,18,0.00
2013-6-13,94.9,84.6,79.6,82.4,80.2,71.0,100,88,47,29.93,29.13,25,10,25,0.00
2013-6-14,87.4,81.6,77.6,80.4,69.8,58.1,89,69,42,29.98,29.57,24,5,24,0.00
2013-6-15,82.8,79.0,75.8,70.1,66.0,59.2,79,65,52,30.11,29.86,16,7,16,0.00
2013-6-16,81.2,79.1,77.2,70.2,67.2,63.5,75,67,58,30.15,29.81,21,11,21,0.00
2013-6-17,84.0,79.2,76.7,79.1,73.9,69.1,96,84,73,30.08,29.69,23,10,23,0.22
2013-6-18,88.4,81.5,73.9,80.5,77.1,73.6,100,87,65,29.99,29.59,29,12,29,0.18
2013-6-19,86.1,78.3,71.3,80.2,74.8,70.8,100,89,72,30.03,29.89,32,7,32,1.67
2013-6-20,81.4,77.0,72.5,75.5,73.3,70.6,100,89,76,30.13,29.89,25,8,25,0.00
2013-6-21,83.8,77.9,73.0,76.4,73.0,70.6,97,85,70,30.15,29.79,19,7,19,0.01
2013-6-22,81.6,77.5,73.9,76.5,74.8,72.4,100,92,80,30.16,30.08,14,5,14,0.49
2013-6-23,85.1,80.8,78.3,78.0,76.9,74.5,96,88,77,30.17,29.64,15,6,15,0.00
2013-6-24,84.3,81.3,79.6,78.7,77.4,74.2,94,88,79,30.21,29.92,18,10,18,0.00
2013-6-25,84.0,81.1,76.8,78.1,76.4,71.2,94,86,76,30.16,29.98,20,10,20,0.09
2013-6-26,87.0,81.3,74.9,79.7,76.9,73.5,99,87,66,30.08,29.63,29,11,29,0.01
2013-6-27,86.5,81.8,79.0,81.2,77.6,68.1,94,87,60,29.98,29.56,33,14,33,0.00
2013-6-28,87.0,82.5,78.5,82.1,77.1,70.3,97,84,65,29.84,29.32,37,12,37,0.00
2013-6-29,84.3,79.4,74.7,78.7,75.6,71.1,96,88,77,29.76,29.38,36,13,36,0.69
2013-6-30,82.8,80.6,76.0,80.0,77.4,72.2,94,90,79,29.84,29.57,30,17,31,0.29